TimePDT,TemperatureF,Dew PointF,Humidity,Sea Level PressureIn,VisibilityMPH,Wind Direction,Wind SpeedMPH,Gust SpeedMPH,PrecipitationIn,Events,Conditions,WindDirDegrees,DateUTC
12:54 AM,44.1,42.1,93,30.08,10.0,South,6.9,-,N/A,,Clear,190,2012-10-09 07:54:00
1:54 AM,44.1,42.1,93,30.09,10.0,South,6.9,-,N/A,,Clear,180,2012-10-09 08:54:00
2:54 AM,43.0,41.0,93,30.10,10.0,SSE,4.6,-,N/A,,Clear,160,2012-10-09 09:54:00
3:54 AM,42.1,41.0,96,30.11,10.0,SSE,3.5,-,N/A,,Clear,150,2012-10-09 10:54:00
4:54 AM,41.0,39.9,96,30.10,10.0,SE,4.6,-,N/A,,Clear,130,2012-10-09 11:54:00
5:54 AM,39.2,37.4,93,30.11,10.0,Calm,Calm,-,N/A,,Partly Cloudy,0,2012-10-09 12:54:00
6:54 AM,37.4,37.4,100,30.11,2.5,SSW,3.5,-,N/A,,Partly Cloudy,200,2012-10-09 13:54:00
7:54 AM,35.6,35.6,100,30.12,3.0,Calm,Calm,-,N/A,,Partly Cloudy,0,2012-10-09 14:54:00
8:54 AM,46.0,43.0,89,30.11,10.0,Calm,Calm,-,N/A,,Partly Cloudy,0,2012-10-09 15:54:00
9:54 AM,50.0,43.0,77,30.11,10.0,Calm,Calm,-,N/A,,Partly Cloudy,0,2012-10-09 16:54:00
10:54 AM,55.0,44.1,67,30.10,10.0,Calm,Calm,-,N/A,,Partly Cloudy,0,2012-10-09 17:54:00
11:54 AM,59.0,44.1,58,30.09,10.0,North,5.8,-,N/A,,Clear,10,2012-10-09 18:54:00
12:54 PM,62.1,45.0,53,30.07,10.0,NNW,6.9,-,N/A,,Clear,340,2012-10-09 19:54:00
1:54 PM,66.0,44.1,45,30.05,10.0,North,6.9,-,N/A,,Clear,350,2012-10-09 20:54:00
2:54 PM,66.9,41.0,39,30.03,10.0,NE,5.8,-,N/A,,Clear,40,2012-10-09 21:54:00
3:54 PM,70.0,39.9,33,30.01,10.0,North,8.1,-,N/A,,Clear,350,2012-10-09 22:54:00
4:54 PM,70.0,41.0,35,30.00,10.0,NNE,10.4,-,N/A,,Clear,20,2012-10-09 23:54:00
5:54 PM,66.9,43.0,42,29.99,10.0,NE,6.9,-,N/A,,Clear,40,2012-10-10 00:54:00
6:54 PM,61.0,41.0,48,30.00,10.0,North,3.5,-,N/A,,Clear,10,2012-10-10 01:54:00
7:54 PM,57.0,42.1,57,30.01,10.0,WNW,5.8,-,N/A,,Clear,300,2012-10-10 02:54:00
8:54 PM,50.0,37.9,63,30.02,10.0,Calm,Calm,-,N/A,,Clear,0,2012-10-10 03:54:00
9:54 PM,46.9,37.0,68,30.03,10.0,South,3.5,-,N/A,,Clear,180,2012-10-10 04:54:00
10:54 PM,48.0,39.9,74,30.03,10.0,Calm,Calm,-,N/A,,Clear,0,2012-10-10 05:54:00
11:54 PM,45.0,37.9,76,30.03,10.0,Calm,Calm,-,N/A,,Clear,0,2012-10-10 06:54:00